TimeEST,TemperatureF,Dew PointF,Humidity,Sea Level PressureIn,VisibilityMPH,Wind Direction,Wind SpeedMPH,Gust SpeedMPH,PrecipitationIn,Events,Conditions,WindDirDegrees,DateUTC
12:54 AM,51.1,48.0,89,29.98,8.0,Calm,Calm,-,0.05,Rain,Rain,0,2013-02-13 05:54:00
1:54 AM,51.1,48.0,89,29.95,10.0,Calm,Calm,-,0.05,Rain,Light Rain,0,2013-02-13 06:54:00
2:54 AM,50.0,46.9,89,29.87,10.0,SE,6.9,-,0.05,Rain,Light Rain,140,2013-02-13 07:54:00
3:54 AM,50.0,46.0,86,29.87,6.0,ENE,3.5,-,0.06,Rain,Rain,70,2013-02-13 08:54:00
4:54 AM,48.9,46.0,90,29.85,6.0,NE,5.8,-,0.07,Rain,Rain,50,2013-02-13 09:54:00
5:07 AM,48.2,46.4,93,29.85,4.0,ENE,4.6,-,0.03,Rain,Rain,70,2013-02-13 10:07:00
5:37 AM,48.2,46.4,93,29.83,5.0,East,6.9,-,0.07,Rain,Light Rain,100,2013-02-13 10:37:00
5:54 AM,48.0,45.0,89,29.84,6.0,ENE,4.6,-,0.07,Rain,Light Rain,70,2013-02-13 10:54:00
6:35 AM,48.2,46.4,93,29.84,4.0,ESE,3.5,-,0.06,Rain,Light Rain,110,2013-02-13 11:35:00
6:54 AM,48.0,46.0,93,29.84,6.0,Calm,Calm,-,0.07,Rain,Light Rain,0,2013-02-13 11:54:00
7:54 AM,48.9,46.0,90,29.82,2.5,NNE,5.8,-,0.01,Rain,Light Rain,30,2013-02-13 12:54:00
8:14 AM,48.2,46.4,93,29.83,1.5,NNE,5.8,-,0.01,Rain,Light Rain,20,2013-02-13 13:14:00
8:43 AM,48.2,46.4,93,29.81,2.5,NNE,8.1,-,0.03,Rain,Light Rain,20,2013-02-13 13:43:00
8:54 AM,48.9,46.9,93,29.81,2.5,North,8.1,-,0.03,Rain,Light Rain,10,2013-02-13 13:54:00
9:23 AM,50.0,46.4,87,29.81,1.2,NNE,10.4,-,0.01,Rain,Light Rain,20,2013-02-13 14:23:00
9:42 AM,50.0,46.4,87,29.79,2.5,NNE,8.1,-,0.02,Rain,Light Rain,30,2013-02-13 14:42:00
9:51 AM,50.0,46.4,87,29.79,4.0,NNE,5.8,-,0.02,Rain,Light Rain,20,2013-02-13 14:51:00
9:54 AM,50.0,46.9,89,29.79,4.0,NNE,8.1,-,0.02,Rain,Light Rain,30,2013-02-13 14:54:00
10:30 AM,50.0,48.2,94,29.79,2.5,NNE,4.6,-,0.00,Rain,Light Rain,20,2013-02-13 15:30:00
10:47 AM,51.8,48.2,88,29.78,4.0,NNE,5.8,-,0.01,Rain,Light Rain,20,2013-02-13 15:47:00
10:54 AM,51.1,48.0,89,29.78,6.0,NNE,4.6,-,0.01,,Overcast,20,2013-02-13 15:54:00
11:54 AM,52.0,48.9,89,29.74,10.0,East,3.5,-,N/A,,Overcast,80,2013-02-13 16:54:00
12:54 PM,52.0,50.0,93,29.71,6.0,Calm,Calm,-,N/A,,Overcast,0,2013-02-13 17:54:00
1:54 PM,53.1,50.0,89,29.69,8.0,East,3.5,-,N/A,,Overcast,90,2013-02-13 18:54:00
2:16 PM,53.6,51.8,94,29.68,1.8,Calm,Calm,-,N/A,,Overcast,0,2013-02-13 19:16:00
2:45 PM,53.6,51.8,94,29.67,2.0,SSE,4.6,-,N/A,,Overcast,160,2013-02-13 19:45:00
2:54 PM,54.0,51.1,90,29.67,3.0,Calm,Calm,-,N/A,,Overcast,0,2013-02-13 19:54:00
3:12 PM,53.6,51.8,94,29.64,3.0,SSE,6.9,-,N/A,,Overcast,150,2013-02-13 20:12:00
3:25 PM,53.6,51.8,94,29.68,2.5,Variable,3.5,-,N/A,,Overcast,0,2013-02-13 20:25:00
3:54 PM,55.0,52.0,89,29.63,2.5,SSE,9.2,-,N/A,,Overcast,150,2013-02-13 20:54:00
4:08 PM,55.4,53.6,94,29.67,4.0,WSW,3.5,-,N/A,,Overcast,240,2013-02-13 21:08:00
4:41 PM,57.2,53.6,88,29.68,8.0,West,10.4,16.1,0.00,Rain,Light Rain,260,2013-02-13 21:41:00
4:54 PM,57.9,54.0,87,29.66,8.0,WSW,6.9,-,0.00,,Overcast,250,2013-02-13 21:54:00
5:23 PM,57.2,53.6,88,29.65,10.0,SW,8.1,-,N/A,,Overcast,230,2013-02-13 22:23:00
5:51 PM,57.2,53.6,88,29.67,10.0,WSW,11.5,19.6,0.00,Rain,Light Rain,250,2013-02-13 22:51:00
5:54 PM,59.0,54.0,83,29.68,10.0,WSW,12.7,19.6,0.00,Rain,Light Rain,250,2013-02-13 22:54:00
6:54 PM,59.0,52.0,78,29.66,10.0,WSW,12.7,20.7,0.00,Rain,Light Rain,240,2013-02-13 23:54:00
7:39 PM,57.2,51.8,82,29.69,10.0,WNW,11.5,-,0.00,Rain,Light Rain,290,2013-02-14 00:39:00
7:50 PM,57.2,50.0,77,29.69,10.0,West,13.8,21.9,0.00,Rain,Light Rain,270,2013-02-14 00:50:00
7:54 PM,57.0,50.0,77,29.70,10.0,West,15.0,24.2,0.00,Rain,Light Rain,280,2013-02-14 00:54:00
8:54 PM,55.9,46.9,72,29.73,10.0,West,17.3,24.2,0.00,,Mostly Cloudy,270,2013-02-14 01:54:00
9:54 PM,55.0,46.0,72,29.75,10.0,West,11.5,24.2,N/A,,Overcast,270,2013-02-14 02:54:00
10:08 PM,55.4,46.4,72,29.75,10.0,West,11.5,19.6,N/A,,Mostly Cloudy,280,2013-02-14 03:08:00
10:54 PM,54.0,46.0,75,29.78,10.0,WNW,10.4,-,N/A,,Overcast,290,2013-02-14 03:54:00
11:54 PM,53.1,45.0,74,29.79,10.0,West,9.2,-,N/A,,Scattered Clouds,270,2013-02-14 04:54:00